GEOSCAN 5 (RS92S5)

Last updated on Mon Sep 21 2026 00:03:15 GMT+0000 (Coordinated Universal Time)

1 64891U 25155R 26263.61246518 .00011556 00000+0 33565-3 0 9990 2 64891 97.4656 234.0464 0005510 178.1787 181.9478 15.35634647 95455
UTC large
Height (km)
Speed (km/s)
/
Latitude / Longitude
Inclination (degrees)
Orbital Period (minutes)
Azimuth
Elevation
Range (km)
Doppler Factor

Next 0 passes for location: London (51.5072 / 0.1276)

No passes found over London.
GEOSCAN 5 (RS92S5)